Location: ???????
(54.6339°N, 39.4245°E)
Time: 03:27:08
(UTC+00:00)

Iridium 4 Rocket - Pass Details

Date: 19 May 2025
Orbit: 582 x 886 km, 86.9° (Epoch: 19 June)

Event Time Altitude Azimuth Distance (km) Brightness Sun altitude
Rises 18:17:46 0° 353° (N) 3,115 7.7 -6.0°
Reaches altitude 10° 18:19:59 10° 351° (N) 2,237 6.9 -6.2°
Maximum altitude 18:24:56 64° 271° (W) 860 4.0 -6.7°
Drops below altitude 10° 18:30:18 10° 191° (S) 2,414 5.7 -7.2°
Sets 18:32:46 0° 188° (S) 3,381 6.4 -7.4°
